Regional Weather Roundup
Issued by NWS

Home | Current Version | Previous Version | Text Only | Print | Product List | Glossary Off
Versions: 1 2 3 4 5 6 7 8 9 10 11 12 13 14 15 16 17 18 19 20 21 22 23 24 25 26 27 28 29 30 31 32 33 34 35 36 37 38 39 40 41 42 43 44 45 46 47 48 49 50

326
ASUS45 KTFX 201610
RWRMT
MONTANA REGIONAL WEATHER ROUNDUP
NATIONAL WEATHER SERVICE GREAT FALLS MT
1000 AM MDT FRI OCT 20 2017

NOTE: "FAIR" INDICATES FEW OR NO CLOUDS BELOW 12000 FEET WITH NO
SIGNIFICANT WEATHER AND/OR OBSTRUCTIONS TO VISIBILITY.

MTZ001>007-043-201700-
WEST OF THE DIVIDE

CITY           SKY/WX    TMP DP  RH WIND       PRES   REMARKS
KALISPELL      LGT RAIN  46  39  76 SW7       29.44R
MISSOULA       LGT RAIN  44  38  79 NW16      29.49R
BUTTE          CLOUDY    54  21  27 S13G18    29.37F
MULLAN PASS    SNOW      29  27  92 VRB5      29.50R VSB 1/4
ANACONDA         N/A     46  25  42 N10       29.37R
DEER LODGE       N/A     46  32  57 NW24G33   29.37S
EUREKA           N/A     46  36  66 MISG      29.43R
HAMILTON         N/A     48  30  49 E3        29.47R
LIBBY            N/A     45  39  81 CALM      29.46R
PLAINS           N/A     47  33  58 SW6       29.56R
$$

MTZ008-052>055-201700-
SOUTHWEST MONTANA

CITY           SKY/WX    TMP DP  RH WIND       PRES   REMARKS
BOZEMAN        CLOUDY    61  33  35 S12       29.35F
DILLON         CLOUDY    56  22  26 S17G23    29.37F
W YELLOWSTONE  CLOUDY    41  25  52 CALM      29.52F
ENNIS          CLOUDY    59  30  33 S26G38    29.43F
THREE FORKS      N/A     61  28  28 S16       29.40F
TWIN BRIDGES     N/A     53  22  30 CALM      29.45S
$$

MTZ009-010-012-014-046-048-049-054-201700-
EAST SLOPES AND CENTRAL MONTANA

CITY           SKY/WX    TMP DP  RH WIND       PRES   REMARKS
CUT BANK       CLOUDY    47  31  53 N9        29.29F
GREAT FALLS    CLOUDY    61  21  21 S14       29.26F
MALMSTROM AFB  CLOUDY    58  25  28 S9        29.26F
HELENA         CLOUDY    53  27  36 N5        29.29F
BOWMANS CRNR     N/A     55  22  27 SW10      29.28R
CHOTEAU          N/A     54  25  32 W3        29.29R
FAIRFIELD      PTSUNNY   53  24  32 SE3       29.26S
POWER            N/A     54  24  32 S9        29.25F
RAYNESFORD     PTSUNNY   55  23  29 E3        29.29F
ULM              N/A     60  25  26 S16       29.25F
$$

MTZ011-013-016-021-045-047-050-051-201700-
NORTH CENTRAL MONTANA

CITY           SKY/WX    TMP DP  RH WIND       PRES   REMARKS
HAVRE          CLOUDY    44  34  67 E5        29.25F
LEWISTOWN      CLOUDY    68  24  19 S15       29.33F
N BAR RANCH      N/A     63  21  20 SW8       29.39F
CHINOOK          N/A     46  32  57 E7        29.25F
DENTON         PTSUNNY   58  22  25 SW10      29.27F
GEYSER         PTSUNNY   55  20  26 SE3       29.30F
GRASS RANGE      N/A     70  22  16 S9        29.29F
JUDITH GAP       N/A     51  23  32 SW10      29.36F
WINIFRED         N/A     64  24  22 SE12      29.29F
$$

MTZ017>020-022>027-061-062-201700-
NORTHEAST MONTANA

CITY           SKY/WX    TMP DP  RH WIND       PRES   REMARKS
GLASGOW        CLOUDY    54  33  45 SE14      29.30F
JORDAN           N/A     60  28  29 CALM      29.31F
SIDNEY         MOSUNNY   49  35  58 S12       29.35F
WOLF POINT     CLOUDY    49  31  49 E3        29.32F
MALTA          SUNNY     52  34  50 E8        29.27F
PLENTYWOOD       N/A     54  30  40 CALM      29.31F
POPLAR           N/A     54  32  43 CALM      29.32F
SCOBEY           N/A     52  28  39 S3        29.34F
$$

MTZ028>42-056>058-201700-
SOUTHCENTRAL AND SOUTHEAST MONTANA

CITY           SKY/WX    TMP DP  RH WIND       PRES   REMARKS
BAKER          SUNNY     61  33  35 E3        29.41F
BILLINGS       CLOUDY    56  24  29 W12       29.36F
LIVINGSTON     CLOUDY    65  31  28 S16G22    29.37F
MILES CITY     SUNNY     53  31  42 S8        29.36F
BIG TIMBER     MOSUNNY   55  25  30 S5        29.40F
EKALAKA          N/A     68  26  20 E8        29.46F
FORSYTH          N/A     52  36  54 CALM      29.35F
HARLOWTON      PTSUNNY   59  26  27 MISG      29.35F
LAUREL           N/A     61  25  25 SW9       29.36F
$$

REGIONAL REPORTS...DAKOTAS

CITY           SKY/WX    TMP DP  RH WIND       PRES   REMARKS
WILLISTON      MOSUNNY   50  34  54 S5        29.34F
MINOT          SUNNY     55  42  61 SE5       29.36F
DICKINSON      SUNNY     67  32  27 S8        29.38F
BEACH            N/A     61  30  31 S6        29.42F
CROSBY           N/A     54  36  50 S10       29.33F
TIOGA            N/A     54  39  58 SW6       29.36F
WATFORD CITY     N/A     52  36  54 CALM      29.35F
BISMARCK       SUNNY     65  48  54 S9        29.43F
GRAND FORKS    MOSUNNY   65  51  60 S23G33    29.51F
FARGO          SUNNY     66  50  56 S16G30    29.57F
BUFFALO SD       N/A     64  32  30 W5        29.38F
RAPID CITY     CLOUDY    68  34  28 S10       29.52F
$$

REGIONAL REPORTS...WYOMING/IDAHO/WASHINGTON

CITY           SKY/WX    TMP DP  RH WIND       PRES   REMARKS
GILLETTE       CLOUDY    66  31  27 S26G39    29.47F
SHERIDAN       CLOUDY    57  30  35 NE6       29.43F
BUFFALO WY     CLOUDY    71  26  18 S12       29.49F
CODY           SUNNY     57  27  31 CALM      29.47F
YELLOWSTONE LA   N/A     35  30  82 CALM      29.61F
IDAHO FALLS    PTSUNNY   56  32  40 S14       29.53R
SALMON         MOSUNNY   43  28  55 N7        29.33F
BOISE          LGT RAIN  42  32  67 W13G23    29.77R
SPOKANE        CLOUDY    42  41  96 SW16      29.55R
$$

REGIONAL REPORTS...ALBERTA

CITY           SKY/WX    TMP DP  RH WIND       PRES   REMARKS
EDMONTON       SUNNY     37  36  93 NW8       29.26R WCI  31
CALGARY        PTSUNNY   45  34  65 N8        29.26R
LETHBRIDGE     PTSUNNY   46  34  61 S6        29.28R
MEDICINE HAT   PTSUNNY   48  32  53 NW5       29.22R
$$

REGIONAL REPORTS...SASKATCHEWAN

CITY           SKY/WX    TMP DP  RH WIND       PRES   REMARKS
SWIFT CURRENT  SUNNY     52  30  43 S6        29.25F
REGINA         PTSUNNY   55  30  38 SE15      29.30F
SASKATOON      PTSUNNY   43  36  75 E6        29.27F
$$




USA.gov is the U.S. government's official web portal to all federal, state and local government web resources and services.